Regional Weather Roundup
Issued by NWS

Home | Current Version | Previous Version | Graphics & Text | Print | Product List | Glossary On
Versions: 1 2 3 4 5 6 7 8 9 10 11 12 13 14 15 16 17 18 19 20 21 22 23 24 25 26 27 28 29 30 31 32 33 34 35 36 37 38 39 40 41 42 43 44 45 46 47 48 49 50
000
ASUS43 KFSD 011502
RWRSD

WEATHER ROUNDUP FOR SOUTH DAKOTA
NATIONAL WEATHER SERVICE SIOUX FALLS SD
900 AM CST WED MAR 01 2017

NOTE: "FAIR" INDICATES FEW OR NO CLOUDS BELOW 12,000 FEET WITH NO
SIGNIFICANT WEATHER AND/OR OBSTRUCTIONS TO VISIBILITY.


SDZ001>005-009-010-012>017-011600-
NORTHWEST AND NORTH CENTRAL SOUTH DAKOTA

CITY           SKY/WX    TMP DP  RH WIND       PRES   REMARKS
BUFFALO          N/A     19  14  81 W9        29.99R WCI   8
FAITH            N/A     24  21  88 NW15      30.06R WCI  11
MOBRIDGE       CLOUDY    27  20  75 N17G25    30.01R WCI  14
$$

SDZ012>016-024>037-041>051-057-063-072>074-011600-
SOUTHWEST AND SOUTH CENTRAL SOUTH DAKOTA

CITY           SKY/WX    TMP DP  RH WIND       PRES   REMARKS
RAPID CTY ARPT SUNNY     29  17  61 NW8       30.07R WCI  21
PIERRE         SUNNY     26  22  84 NW22      30.04R WCI  12
CUSTER         SUNNY     19   4  51 W15G21    29.97R WCI   5
ELLSWORTH AFB  SUNNY     28  18  65 NW10      30.06R WCI  19
PHILIP         SUNNY     27  22  81 NW16      30.09R WCI  15
PINE RIDGE     MOSUNNY   26  18  71 W15       30.10R WCI  14
SPEARFISH      FAIR      25  14  63 W13       30.04R WCI  13
WINNER         CLOUDY    30  26  85 NW24      30.06R WCI  16
$$

SDZ004>011-016>023-039-040-011600-
NORTHEAST SOUTH DAKOTA

CITY           SKY/WX    TMP DP  RH WIND       PRES   REMARKS
ABERDEEN       LGT SNOW  22  17  81 N7        30.02R WCI  13
WATERTOWN      SUNNY     22  17  81 NW16      29.94R WCI   8
BROOKINGS      SUNNY     24  20  84 NW15      29.94R WCI  11
SISSETON         N/A     21  14  74 N18       29.97R WCI   6
$$

SDZ017-020-022-023-036>040-048>070-011600-
SOUTHEAST SOUTH DAKOTA

CITY           SKY/WX    TMP DP  RH WIND       PRES   REMARKS
SIOUX FALLS    MOSUNNY   25  21  85 NW16      29.97R WCI  12
HURON          CLOUDY    21  19  92 NW13      30.03R WCI   9
CHAMBERLAIN    LGT SNOW  25  24  95 W14       30.05R WCI  13
MITCHELL       SUNNY     25  22  88 W13       30.04R WCI  14
YANKTON          N/A    N/A N/A N/A MISG        N/A
$$

ABBREVIATIONS USED IN REMARKS
   TC - TEMPERATURE IN CELSIUS
  WCI - WIND CHILL INDEX
   HX - HEAT INDEX
  VSB - VISIBILITY





USA.gov is the U.S. government's official web portal to all federal, state and local government web resources and services.